ASL186 LYBE-UWGG

Flight info

Callsign ASL186
Flight time 3h 14m
Altitude 33000
Route TISAK DCT PARAK DCT KEKED DCT PODAN M857 BULEP DCT BOKSU DCT LAFAT/K0832F330 L29 INKUZ N858 BENIM M997 RATIN L999 AGLAN M864 EKPIR L94 USTOK
Aircraft A319/M-SDE3FGHIRWY/LB1

Departure

Time 2026-04-28 17:39
Airport Belgrade Nikola Tesla Airport (LYBE)

Arrival

Time 2026-04-28 20:53
Airport Nizhny Novgorod / Strigino International Airport (UWGG)
Time Latitude Longitude Altitude Speed Heading
2026-04-28 16:31 44.82249 20.28887 322 ft 0 kts 212°
2026-04-28 17:25 44.82252 20.28890 321 ft 3 kts 211°
2026-04-28 17:26 44.82276 20.28908 320 ft 4 kts 202°
2026-04-28 17:26 44.82302 20.28919 321 ft 4 kts 189°
2026-04-28 17:26 44.82327 20.28917 318 ft 4 kts 148°
2026-04-28 17:26 44.82334 20.28909 319 ft 0 kts 122°
2026-04-28 17:28 44.82327 20.28924 320 ft 4 kts 122°
2026-04-28 17:29 44.82309 20.28966 321 ft 6 kts 122°
2026-04-28 17:29 44.82281 20.29029 320 ft 9 kts 122°
2026-04-28 17:29 44.82244 20.29112 319 ft 11 kts 122°
2026-04-28 17:30 44.82150 20.29322 320 ft 15 kts 122°
2026-04-28 17:30 44.82101 20.29434 321 ft 1 kts 122°
2026-04-28 17:30 44.82080 20.29470 321 ft 9 kts 140°
2026-04-28 17:31 44.82011 20.29449 320 ft 12 kts 210°
2026-04-28 17:31 44.82002 20.29558 320 ft 13 kts 32°
2026-04-28 17:32 44.82074 20.29681 322 ft 9 kts 116°
2026-04-28 17:32 44.82039 20.29764 322 ft 11 kts 121°
2026-04-28 17:32 44.81993 20.29867 320 ft 14 kts 122°
2026-04-28 17:32 44.81937 20.29991 321 ft 16 kts 122°
2026-04-28 17:33 44.81876 20.30129 320 ft 17 kts 122°
2026-04-28 17:33 44.81809 20.30280 320 ft 19 kts 121°
2026-04-28 17:33 44.81740 20.30438 322 ft 20 kts 123°
2026-04-28 17:33 44.81689 20.30551 321 ft 21 kts 122°
2026-04-28 17:34 44.81583 20.30788 321 ft 23 kts 122°
2026-04-28 17:34 44.81498 20.30981 321 ft 24 kts 122°
2026-04-28 17:34 44.81409 20.31182 320 ft 25 kts 122°
2026-04-28 17:34 44.81317 20.31390 320 ft 25 kts 122°
2026-04-28 17:35 44.81222 20.31602 322 ft 26 kts 123°
2026-04-28 17:35 44.81123 20.31816 321 ft 26 kts 121°
2026-04-28 17:35 44.81072 20.31942 320 ft 13 kts 122°
2026-04-28 17:35 44.81020 20.32058 320 ft 15 kts 122°
2026-04-28 17:36 44.81004 20.32094 320 ft 2 kts 119°
2026-04-28 17:36 44.80993 20.32127 320 ft 5 kts 112°
2026-04-28 17:36 44.80995 20.32190 319 ft 8 kts 70°
2026-04-28 17:36 44.81043 20.32255 319 ft 11 kts 29°
2026-04-28 17:37 44.81119 20.32300 321 ft 12 kts 12°
2026-04-28 17:37 44.81207 20.32320 322 ft 13 kts 345°
2026-04-28 17:37 44.81248 20.32261 322 ft 0 kts 301°
2026-04-28 17:38 44.81382 20.31958 321 ft 70 kts 302°
2026-04-28 17:38 44.81742 20.31142 320 ft 124 kts 301°
2026-04-28 17:38 44.82261 20.29947 474 ft 147 kts 299°
2026-04-28 17:38 44.82771 20.28685 887 ft 158 kts 298°
2026-04-28 17:39 44.83437 20.27423 1368 ft 162 kts 327°
2026-04-28 17:39 44.84501 20.26980 1924 ft 162 kts 353°
2026-04-28 17:39 44.86776 20.26623 3125 ft 165 kts 353°
2026-04-28 17:40 44.87957 20.26410 3632 ft 179 kts 352°
2026-04-28 17:40 44.89252 20.26149 4072 ft 197 kts 351°
2026-04-28 17:40 44.90661 20.25853 4639 ft 209 kts 351°
2026-04-28 17:40 44.92098 20.25558 5374 ft 212 kts 351°
2026-04-28 17:41 44.93609 20.25234 5830 ft 232 kts 351°
2026-04-28 17:41 44.95306 20.24860 5894 ft 255 kts 351°
2026-04-28 17:41 44.97062 20.24474 5890 ft 254 kts 351°
2026-04-28 17:41 44.98794 20.24096 5891 ft 255 kts 351°
2026-04-28 17:42 45.00549 20.23715 5891 ft 255 kts 351°
2026-04-28 17:42 45.01733 20.23458 5892 ft 255 kts 351°
2026-04-28 17:42 45.04056 20.22954 5891 ft 255 kts 351°
2026-04-28 17:42 45.05816 20.22693 5907 ft 256 kts 360°
2026-04-28 17:43 45.07640 20.22715 6025 ft 269 kts 360°
2026-04-28 17:43 45.09570 20.22721 6621 ft 279 kts 360°
2026-04-28 17:43 45.11514 20.22720 7570 ft 281 kts 360°
2026-04-28 17:43 45.13483 20.22719 8430 ft 285 kts 360°
2026-04-28 17:44 45.15453 20.22718 9274 ft 289 kts 360°
2026-04-28 17:44 45.17473 20.22718 10107 ft 292 kts 360°
2026-04-28 17:44 45.19522 20.22718 10914 ft 296 kts 360°
2026-04-28 17:44 45.21599 20.22719 11710 ft 300 kts 360°
2026-04-28 17:45 45.23696 20.22720 12494 ft 303 kts 360°
2026-04-28 17:45 45.25821 20.22721 13250 ft 307 kts 360°
2026-04-28 17:45 45.27970 20.22723 13986 ft 310 kts 360°
2026-04-28 17:45 45.30147 20.22724 14706 ft 314 kts 360°
2026-04-28 17:46 45.32340 20.22725 15396 ft 317 kts 360°
2026-04-28 17:46 45.34533 20.22726 16074 ft 321 kts 360°
2026-04-28 17:46 45.36776 20.22728 16738 ft 324 kts 360°
2026-04-28 17:46 45.39045 20.22729 17386 ft 327 kts 360°
2026-04-28 17:47 45.41333 20.22715 18007 ft 330 kts 358°
2026-04-28 17:47 45.43638 20.22487 18647 ft 333 kts 353°
2026-04-28 17:47 45.45965 20.22062 19060 ft 343 kts 352°
2026-04-28 17:47 45.46769 20.21916 19131 ft 349 kts 352°
2026-04-28 17:48 45.50943 20.21172 19364 ft 377 kts 352°
2026-04-28 17:48 45.53602 20.20702 19586 ft 390 kts 352°
2026-04-28 17:48 45.56304 20.20224 20106 ft 394 kts 352°
2026-04-28 17:48 45.59005 20.19744 20664 ft 396 kts 352°
2026-04-28 17:49 45.61757 20.19255 21181 ft 400 kts 352°
2026-04-28 17:49 45.64525 20.18761 21690 ft 403 kts 352°
2026-04-28 17:49 45.67321 20.18262 22189 ft 406 kts 352°
2026-04-28 17:49 45.70139 20.17758 22696 ft 409 kts 352°
2026-04-28 17:50 45.72972 20.17251 23163 ft 412 kts 352°
2026-04-28 17:50 45.75831 20.16739 23634 ft 415 kts 352°
2026-04-28 17:50 45.78705 20.16223 24092 ft 418 kts 352°
2026-04-28 17:50 45.80627 20.15878 24390 ft 420 kts 352°
2026-04-28 17:51 45.83538 20.15355 24825 ft 423 kts 352°
2026-04-28 17:51 45.86470 20.14828 25248 ft 426 kts 352°
2026-04-28 17:51 45.89419 20.14298 25562 ft 429 kts 352°
2026-04-28 17:51 45.92385 20.13763 25569 ft 429 kts 352°
2026-04-28 17:52 45.95346 20.13230 25570 ft 428 kts 352°
2026-04-28 17:52 45.98304 20.12696 25567 ft 428 kts 352°
2026-04-28 17:52 46.04214 20.11627 25578 ft 429 kts 352°
2026-04-28 17:53 46.07188 20.11088 25915 ft 432 kts 352°
2026-04-28 17:53 46.10173 20.10547 26361 ft 433 kts 352°
2026-04-28 17:53 46.13140 20.10065 26728 ft 435 kts 356°
2026-04-28 17:53 46.16171 20.10126 27123 ft 437 kts
2026-04-28 17:54 46.19189 20.10857 27408 ft 441 kts 14°
2026-04-28 17:54 46.22128 20.12192 27757 ft 443 kts 19°
2026-04-28 17:54 46.25060 20.13630 28086 ft 446 kts 18°
2026-04-28 17:54 46.28008 20.15064 28403 ft 448 kts 18°
2026-04-28 17:55 46.30972 20.16503 28708 ft 450 kts 18°
2026-04-28 17:55 46.33946 20.17948 29005 ft 452 kts 18°
2026-04-28 17:55 46.36940 20.19406 29286 ft 454 kts 18°
2026-04-28 17:55 46.39944 20.20872 29553 ft 456 kts 18°
2026-04-28 17:56 46.42958 20.22346 29832 ft 458 kts 18°
2026-04-28 17:56 46.45984 20.23826 30111 ft 460 kts 18°
2026-04-28 17:56 46.48981 20.25295 30379 ft 462 kts 18°
2026-04-28 17:56 46.52046 20.26799 30646 ft 464 kts 18°
2026-04-28 17:57 46.55110 20.28304 30913 ft 466 kts 18°
2026-04-28 17:57 46.58187 20.29816 31205 ft 467 kts 18°
2026-04-28 17:57 46.61268 20.31332 31553 ft 466 kts 18°
2026-04-28 17:57 46.64341 20.32847 31905 ft 466 kts 18°
2026-04-28 17:58 46.67406 20.34359 32233 ft 465 kts 19°
2026-04-28 17:58 46.70469 20.35872 32487 ft 464 kts 19°
2026-04-28 17:58 46.73518 20.37381 32730 ft 463 kts 19°
2026-04-28 17:58 46.76573 20.38893 32972 ft 463 kts 19°
2026-04-28 17:59 46.82662 20.41914 33000 ft 461 kts 19°
2026-04-28 17:59 46.88708 20.44921 33000 ft 462 kts 19°
2026-04-28 18:00 46.94819 20.47968 33000 ft 462 kts 19°
2026-04-28 18:00 47.00869 20.50991 33001 ft 462 kts 19°
2026-04-28 18:01 47.06947 20.54036 33000 ft 462 kts 19°
2026-04-28 18:01 47.13046 20.57099 33000 ft 462 kts 19°
2026-04-28 18:02 47.19114 20.60153 33001 ft 462 kts 19°
2026-04-28 18:02 47.25160 20.63204 33000 ft 462 kts 19°
2026-04-28 18:03 47.31242 20.66281 33000 ft 462 kts 19°
2026-04-28 18:03 47.37325 20.69365 33000 ft 462 kts 19°
2026-04-28 18:04 47.43401 20.72454 33000 ft 462 kts 19°
2026-04-28 18:04 47.49479 20.75551 33000 ft 462 kts 19°
2026-04-28 18:05 47.54528 20.78130 33000 ft 462 kts 19°
2026-04-28 18:05 47.61629 20.81765 33001 ft 462 kts 19°
2026-04-28 18:06 47.67659 20.84861 33001 ft 462 kts 19°
2026-04-28 18:06 47.73740 20.87990 33002 ft 462 kts 19°
2026-04-28 18:07 47.79815 20.91124 33002 ft 462 kts 19°
2026-04-28 18:07 47.85887 20.94264 33001 ft 462 kts 19°
2026-04-28 18:08 47.91955 20.97410 33001 ft 462 kts 19°
2026-04-28 18:08 47.97990 21.00547 33001 ft 462 kts 19°
2026-04-28 18:09 48.04054 21.03707 33000 ft 462 kts 19°
2026-04-28 18:09 48.10126 21.06878 33000 ft 462 kts 19°
2026-04-28 18:10 48.16201 21.10059 33000 ft 462 kts 19°
2026-04-28 18:10 48.22266 21.13243 33000 ft 462 kts 19°
2026-04-28 18:11 48.28296 21.16417 33000 ft 462 kts 19°
2026-04-28 18:11 48.34370 21.19621 33000 ft 462 kts 19°
2026-04-28 18:12 48.40432 21.22828 33001 ft 462 kts 19°
2026-04-28 18:12 48.46471 21.26029 33001 ft 462 kts 19°
2026-04-28 18:13 48.52624 21.28760 33000 ft 461 kts 12°
2026-04-28 18:13 48.58979 21.30229 33000 ft 461 kts
2026-04-28 18:14 48.65364 21.31269 32999 ft 461 kts
2026-04-28 18:14 48.71746 21.32318 32999 ft 461 kts
2026-04-28 18:15 48.78090 21.33363 33000 ft 461 kts
2026-04-28 18:15 48.84482 21.34418 33000 ft 461 kts
2026-04-28 18:16 48.90871 21.35475 33003 ft 461 kts
2026-04-28 18:16 48.97256 21.36534 33002 ft 462 kts
2026-04-28 18:17 49.03657 21.37599 33003 ft 462 kts
2026-04-28 18:17 49.10005 21.38657 33002 ft 462 kts
2026-04-28 18:18 49.16389 21.39725 33002 ft 461 kts
2026-04-28 18:18 49.21735 21.40620 33001 ft 461 kts
2026-04-28 18:19 49.29163 21.41868 33002 ft 461 kts
2026-04-28 18:19 49.35556 21.42946 33000 ft 461 kts
2026-04-28 18:20 49.41903 21.44089 33001 ft 461 kts
2026-04-28 18:20 49.48240 21.45758 33000 ft 461 kts
2026-04-28 18:21 49.54578 21.47412 33000 ft 461 kts
2026-04-28 18:21 49.60906 21.49074 32999 ft 461 kts
2026-04-28 18:22 49.67234 21.50746 32999 ft 461 kts
2026-04-28 18:22 49.73562 21.52423 33001 ft 461 kts
2026-04-28 18:23 49.79906 21.54109 32999 ft 461 kts
2026-04-28 18:23 49.86198 21.55786 33000 ft 461 kts
2026-04-28 18:24 49.89358 21.56634 34129 ft 453 kts
2026-04-28 18:24 49.91384 21.57210 33953 ft 440 kts
2026-04-28 18:24 49.95318 21.58306 33407 ft 421 kts
2026-04-28 18:24 49.98169 21.59075 33234 ft 407 kts
2026-04-28 18:25 50.03721 21.60544 33243 ft 410 kts
2026-04-28 18:26 50.11748 21.62679 33250 ft 410 kts
2026-04-28 18:26 50.17373 21.64191 33249 ft 410 kts
2026-04-28 18:27 50.22976 21.65701 33250 ft 411 kts
2026-04-28 18:27 50.28613 21.67226 33251 ft 411 kts
2026-04-28 18:28 50.34260 21.68757 33252 ft 412 kts
2026-04-28 18:28 50.39911 21.70294 33264 ft 412 kts
2026-04-28 18:29 50.45537 21.71829 33260 ft 413 kts
2026-04-28 18:29 50.51200 21.73378 33261 ft 413 kts
2026-04-28 18:30 50.56873 21.74933 33310 ft 415 kts
2026-04-28 18:30 50.62550 21.76494 33970 ft 414 kts
2026-04-28 18:30 50.65390 21.77277 34281 ft 413 kts
2026-04-28 18:31 50.68226 21.78059 34520 ft 414 kts
2026-04-28 18:31 50.71070 21.78843 34735 ft 415 kts
2026-04-28 18:31 50.73886 21.79619 34948 ft 416 kts
2026-04-28 18:31 50.76742 21.80408 35160 ft 416 kts
2026-04-28 18:32 50.79603 21.81200 35268 ft 417 kts
2026-04-28 18:32 50.85319 21.82789 35265 ft 415 kts
2026-04-28 18:33 50.88602 21.83702 35264 ft 416 kts
2026-04-28 18:33 50.94321 21.85295 35264 ft 416 kts
2026-04-28 18:34 51.00025 21.86888 35265 ft 416 kts
2026-04-28 18:34 51.05732 21.88487 35270 ft 416 kts
2026-04-28 18:35 51.11437 21.90084 35269 ft 416 kts
2026-04-28 18:35 51.17116 21.91673 35261 ft 417 kts
2026-04-28 18:36 51.22838 21.93249 35262 ft 417 kts
2026-04-28 18:36 51.28557 21.94827 35263 ft 417 kts
2026-04-28 18:37 51.34286 21.96414 35261 ft 417 kts
2026-04-28 18:37 51.39049 21.97738 35265 ft 417 kts
2026-04-28 18:38 51.45712 21.99618 35265 ft 418 kts
2026-04-28 18:38 51.51441 22.01284 35265 ft 419 kts
2026-04-28 18:39 51.56212 22.02671 35263 ft 419 kts
2026-04-28 18:39 51.61964 22.04343 35266 ft 419 kts
2026-04-28 18:39 51.64837 22.05176 35421 ft 419 kts
2026-04-28 18:40 51.67726 22.06009 35348 ft 425 kts
2026-04-28 18:40 51.70070 22.06687 35263 ft 425 kts
2026-04-28 18:42 51.72590 22.07420 35273 ft 424 kts
2026-04-28 18:43 51.75149 22.08166 35266 ft 424 kts
2026-04-28 18:45 51.76768 22.08638 35268 ft 424 kts
2026-04-28 18:45 51.82622 22.10349 35266 ft 424 kts
2026-04-28 18:46 51.88430 22.12055 35267 ft 424 kts
2026-04-28 18:46 51.94205 22.13756 35266 ft 424 kts
2026-04-28 18:47 52.00016 22.15471 35265 ft 424 kts
2026-04-28 18:47 52.05814 22.17188 35261 ft 424 kts
2026-04-28 18:48 52.11616 22.18909 35256 ft 423 kts
2026-04-28 18:48 52.17416 22.20659 35257 ft 424 kts
2026-04-28 18:49 52.22217 22.22343 35256 ft 425 kts
2026-04-28 18:49 52.28940 22.24756 35255 ft 425 kts
2026-04-28 18:50 52.34718 22.26799 35257 ft 425 kts
2026-04-28 18:50 52.40504 22.28839 35253 ft 425 kts
2026-04-28 18:51 52.46295 22.30885 35259 ft 425 kts
2026-04-28 18:51 52.52087 22.32939 35257 ft 426 kts
2026-04-28 18:52 52.57888 22.35003 35257 ft 426 kts
2026-04-28 18:52 52.63693 22.37073 35255 ft 427 kts
2026-04-28 18:53 52.69466 22.39137 35256 ft 427 kts
2026-04-28 18:53 52.75279 22.41221 35259 ft 428 kts
2026-04-28 18:54 52.81094 22.43407 35260 ft 429 kts
2026-04-28 18:54 52.86896 22.45790 35262 ft 430 kts 10°
2026-04-28 18:55 52.91728 22.47763 35260 ft 430 kts 10°
2026-04-28 18:55 52.98531 22.50523 35268 ft 430 kts 10°
2026-04-28 18:56 53.04350 22.52886 35270 ft 431 kts 10°
2026-04-28 18:56 53.10144 22.55245 35272 ft 431 kts 10°
2026-04-28 18:57 53.15971 22.57625 35274 ft 432 kts 10°
2026-04-28 18:57 53.21805 22.60015 35274 ft 432 kts 10°
2026-04-28 18:58 53.27637 22.62410 35275 ft 432 kts 10°
2026-04-28 18:58 53.33477 22.64816 35269 ft 432 kts 10°
2026-04-28 18:59 53.39321 22.67229 35269 ft 432 kts 11°
2026-04-28 18:59 53.45159 22.69648 35267 ft 432 kts 11°
2026-04-28 19:00 53.50967 22.72060 35269 ft 432 kts 11°
2026-04-28 19:00 53.56806 22.74492 35264 ft 432 kts 11°
2026-04-28 19:01 53.62635 22.76928 35261 ft 432 kts 11°
2026-04-28 19:01 53.68466 22.79371 35260 ft 431 kts 11°
2026-04-28 19:02 53.74298 22.81821 35258 ft 431 kts 11°
2026-04-28 19:02 53.80128 22.84277 35256 ft 431 kts 11°
2026-04-28 19:03 53.85959 22.86741 35265 ft 431 kts 11°
2026-04-28 19:03 53.91747 22.89193 35264 ft 432 kts 11°
2026-04-28 19:04 53.97575 22.91670 35259 ft 432 kts 11°
2026-04-28 19:04 54.03413 22.94158 35259 ft 432 kts 12°
2026-04-28 19:05 54.09247 22.96652 35257 ft 432 kts 12°
2026-04-28 19:05 54.15034 22.99162 35295 ft 428 kts
2026-04-28 19:06 54.19834 23.01226 35297 ft 428 kts
2026-04-28 19:06 54.26399 23.05279 35295 ft 439 kts 26°
2026-04-28 19:07 54.31067 23.12227 35283 ft 454 kts 46°
2026-04-28 19:07 54.32812 23.16785 35280 ft 463 kts 57°
2026-04-28 19:07 54.34062 23.21910 35267 ft 469 kts 65°
2026-04-28 19:08 54.36189 23.32440 35257 ft 469 kts 65°
2026-04-28 19:08 54.38324 23.42993 35243 ft 468 kts 65°
2026-04-28 19:09 54.40457 23.53555 35238 ft 467 kts 65°
2026-04-28 19:09 54.42579 23.64109 35229 ft 467 kts 65°
2026-04-28 19:10 54.44681 23.74614 35222 ft 467 kts 65°
2026-04-28 19:10 54.46783 23.85184 35211 ft 466 kts 65°
2026-04-28 19:11 54.48862 23.95695 35206 ft 467 kts 65°
2026-04-28 19:11 54.50948 24.06295 35204 ft 467 kts 65°
2026-04-28 19:12 54.53025 24.16910 35202 ft 467 kts 65°
2026-04-28 19:12 54.55093 24.27541 35200 ft 468 kts 65°
2026-04-28 19:13 54.57142 24.38131 35200 ft 468 kts 65°
2026-04-28 19:13 54.59198 24.48813 35200 ft 469 kts 66°
2026-04-28 19:14 54.61244 24.59512 35201 ft 470 kts 66°
2026-04-28 19:14 54.63281 24.70234 35221 ft 476 kts 65°
2026-04-28 19:15 54.64311 24.75676 35467 ft 476 kts 65°
2026-04-28 19:15 54.65338 24.81112 35753 ft 475 kts 66°
2026-04-28 19:15 54.66359 24.86535 36032 ft 474 kts 66°
2026-04-28 19:15 54.67035 24.90125 36214 ft 474 kts 66°
2026-04-28 19:16 54.68397 24.97388 36533 ft 473 kts 66°
2026-04-28 19:16 54.69410 25.02803 36771 ft 473 kts 66°
2026-04-28 19:16 54.70416 25.08199 37037 ft 472 kts 67°
2026-04-28 19:16 54.71407 25.13533 37275 ft 471 kts 67°
2026-04-28 19:17 54.72406 25.18929 37495 ft 471 kts 67°
2026-04-28 19:17 54.73402 25.24324 37725 ft 470 kts 68°
2026-04-28 19:17 54.74393 25.29703 37951 ft 469 kts 68°
2026-04-28 19:17 54.75384 25.35101 38170 ft 469 kts 68°
2026-04-28 19:18 54.76371 25.40497 38389 ft 468 kts 68°
2026-04-28 19:18 54.77352 25.45877 38594 ft 468 kts 68°
2026-04-28 19:18 54.78331 25.51257 38783 ft 468 kts 68°
2026-04-28 19:18 54.79304 25.56627 38950 ft 467 kts 68°
2026-04-28 19:19 54.80277 25.62010 39091 ft 467 kts 69°
2026-04-28 19:19 54.81247 25.67386 39175 ft 467 kts 69°
2026-04-28 19:19 54.83122 25.78162 39173 ft 467 kts 70°
2026-04-28 19:20 54.84706 25.89038 39171 ft 468 kts 73°
2026-04-28 19:20 54.86225 26.00026 39167 ft 468 kts 72°
2026-04-28 19:21 54.87743 26.11019 39161 ft 468 kts 73°
2026-04-28 19:21 54.89255 26.22032 39154 ft 468 kts 73°
2026-04-28 19:22 54.90257 26.29384 39161 ft 468 kts 73°
2026-04-28 19:22 54.92242 26.44037 39152 ft 468 kts 73°
2026-04-28 19:23 54.93723 26.55071 39149 ft 468 kts 73°
2026-04-28 19:23 54.95183 26.66028 39150 ft 468 kts 73°
2026-04-28 19:24 54.96408 26.75281 39146 ft 468 kts 73°
2026-04-28 19:24 54.97859 26.86322 39147 ft 468 kts 74°
2026-04-28 19:25 54.99300 26.97372 39146 ft 468 kts 74°
2026-04-28 19:25 55.00733 27.08445 39141 ft 468 kts 74°
2026-04-28 19:26 55.02147 27.19456 39138 ft 468 kts 74°
2026-04-28 19:26 55.03560 27.30540 39139 ft 468 kts 74°
2026-04-28 19:27 55.04876 27.40945 39138 ft 469 kts 75°
2026-04-28 19:27 55.06172 27.51356 39135 ft 469 kts 75°
2026-04-28 19:28 55.07533 27.62507 39135 ft 469 kts 75°
2026-04-28 19:28 55.08879 27.73601 39128 ft 469 kts 75°
2026-04-28 19:29 55.10006 27.82946 39128 ft 469 kts 75°
2026-04-28 19:29 55.11560 27.95940 39125 ft 470 kts 75°
2026-04-28 19:30 55.12886 28.07126 39122 ft 470 kts 76°
2026-04-28 19:30 55.14176 28.18265 39119 ft 470 kts 77°
2026-04-28 19:31 55.15120 28.29595 39116 ft 472 kts 82°
2026-04-28 19:31 55.15798 28.41047 39115 ft 472 kts 82°
2026-04-28 19:32 55.16474 28.52459 39114 ft 472 kts 82°
2026-04-28 19:32 55.17146 28.63911 39121 ft 471 kts 82°
2026-04-28 19:33 55.17800 28.75216 39149 ft 469 kts 82°
2026-04-28 19:33 55.18444 28.86597 39136 ft 468 kts 83°
2026-04-28 19:34 55.19075 28.97916 39121 ft 467 kts 83°
2026-04-28 19:34 55.19690 29.09147 39112 ft 465 kts 83°
2026-04-28 19:35 55.20297 29.20410 39097 ft 464 kts 83°
2026-04-28 19:35 55.20892 29.31646 39083 ft 462 kts 83°
2026-04-28 19:36 55.21474 29.42854 39076 ft 461 kts 83°
2026-04-28 19:36 55.22042 29.53971 39062 ft 460 kts 83°
2026-04-28 19:37 55.22512 29.63328 39058 ft 460 kts 83°
2026-04-28 19:37 55.23152 29.76307 39051 ft 459 kts 83°
2026-04-28 19:38 55.23690 29.87456 39050 ft 459 kts 84°
2026-04-28 19:38 55.24218 29.98605 39046 ft 459 kts 84°
2026-04-28 19:39 55.24734 30.09712 39049 ft 460 kts 84°
2026-04-28 19:39 55.25242 30.20882 39044 ft 460 kts 84°
2026-04-28 19:40 55.25742 30.32100 39051 ft 461 kts 84°
2026-04-28 19:40 55.26233 30.43337 39057 ft 462 kts 84°
2026-04-28 19:41 55.26714 30.54597 39056 ft 463 kts 84°
2026-04-28 19:41 55.27182 30.65796 39065 ft 464 kts 84°
2026-04-28 19:42 55.27668 30.77077 39063 ft 464 kts 83°
2026-04-28 19:42 55.28478 30.86389 39065 ft 463 kts 77°
2026-04-28 19:43 55.30479 30.99154 39068 ft 463 kts 70°
2026-04-28 19:43 55.32528 31.09796 39067 ft 463 kts 70°
2026-04-28 19:44 55.34574 31.20546 39068 ft 463 kts 70°
2026-04-28 19:44 55.36601 31.31293 39069 ft 463 kts 70°
2026-04-28 19:45 55.38612 31.42043 39061 ft 463 kts 71°
2026-04-28 19:45 55.40617 31.52807 39057 ft 462 kts 71°
2026-04-28 19:46 55.42598 31.63502 39049 ft 462 kts 71°
2026-04-28 19:46 55.44579 31.74263 39045 ft 462 kts 71°
2026-04-28 19:47 55.46549 31.85024 39041 ft 461 kts 71°
2026-04-28 19:47 55.48507 31.95782 39035 ft 461 kts 71°
2026-04-28 19:48 55.50455 32.06551 39030 ft 460 kts 71°
2026-04-28 19:48 55.52393 32.17325 39027 ft 460 kts 71°
2026-04-28 19:49 55.54307 32.28028 39021 ft 460 kts 71°
2026-04-28 19:49 55.56223 32.38806 39018 ft 460 kts 71°
2026-04-28 19:50 55.59078 32.54990 39011 ft 460 kts 72°
2026-04-28 19:51 55.60971 32.65795 39005 ft 460 kts 72°
2026-04-28 19:51 55.62857 32.76629 39002 ft 460 kts 72°
2026-04-28 19:52 55.64732 32.87466 38998 ft 460 kts 72°
2026-04-28 19:52 55.66587 32.98251 38998 ft 461 kts 72°
2026-04-28 19:53 55.68447 33.09134 38999 ft 461 kts 72°
2026-04-28 19:53 55.70302 33.20049 38990 ft 462 kts 72°
2026-04-28 19:54 55.72137 33.30906 38993 ft 463 kts 72°
2026-04-28 19:54 55.73976 33.41875 38990 ft 463 kts 72°
2026-04-28 19:55 55.75806 33.52851 38989 ft 464 kts 72°
2026-04-28 19:55 55.77630 33.63858 38986 ft 465 kts 72°
2026-04-28 19:56 55.79447 33.74895 38983 ft 465 kts 72°
2026-04-28 19:56 55.81254 33.85941 38979 ft 466 kts 73°
2026-04-28 19:57 55.83055 33.97016 38978 ft 466 kts 73°
2026-04-28 19:57 55.84847 34.08116 38975 ft 466 kts 73°
2026-04-28 19:58 55.86633 34.19240 38972 ft 467 kts 73°
2026-04-28 19:58 55.88258 34.30355 38965 ft 467 kts 77°
2026-04-28 19:59 55.89253 34.41824 38958 ft 468 kts 84°
2026-04-28 19:59 55.89594 34.53427 38956 ft 468 kts 88°
2026-04-28 20:00 55.89789 34.65021 38948 ft 469 kts 88°
2026-04-28 20:00 55.89985 34.76569 38945 ft 469 kts 88°
2026-04-28 20:01 55.90175 34.88193 38940 ft 469 kts 88°
2026-04-28 20:01 55.90355 34.99816 38934 ft 469 kts 88°
2026-04-28 20:02 55.90526 35.11440 38929 ft 469 kts 88°
2026-04-28 20:02 55.90694 35.23070 38927 ft 469 kts 88°
2026-04-28 20:03 55.90850 35.34715 38918 ft 470 kts 88°
2026-04-28 20:03 55.90995 35.46382 38909 ft 471 kts 88°
2026-04-28 20:04 55.91128 35.57991 38914 ft 470 kts 88°
2026-04-28 20:04 55.91252 35.69655 38907 ft 470 kts 89°
2026-04-28 20:05 55.91364 35.81345 38900 ft 473 kts 88°
2026-04-28 20:05 55.91763 35.93009 38903 ft 471 kts 85°
2026-04-28 20:06 55.92288 36.04645 38886 ft 469 kts 85°
2026-04-28 20:06 55.92789 36.16161 38868 ft 467 kts 85°
2026-04-28 20:07 55.93280 36.27713 38852 ft 466 kts 85°
2026-04-28 20:07 55.93758 36.39239 38840 ft 465 kts 85°
2026-04-28 20:08 55.94223 36.50703 38833 ft 465 kts 85°
2026-04-28 20:08 55.94680 36.62222 38827 ft 465 kts 85°
2026-04-28 20:09 55.95127 36.73758 38825 ft 466 kts 86°
2026-04-28 20:09 55.95563 36.85309 38814 ft 466 kts 86°
2026-04-28 20:10 55.95918 36.94923 38815 ft 467 kts 86°
2026-04-28 20:10 55.96404 37.08421 38808 ft 469 kts 86°
2026-04-28 20:11 55.96745 37.18170 38816 ft 470 kts 86°
2026-04-28 20:11 55.97143 37.29834 38820 ft 471 kts 86°
2026-04-28 20:12 55.97519 37.41528 38827 ft 473 kts 86°
2026-04-28 20:12 55.97873 37.53266 38831 ft 474 kts 86°
2026-04-28 20:13 55.98218 37.64958 38840 ft 475 kts 87°
2026-04-28 20:13 55.98556 37.76763 38851 ft 476 kts 87°
2026-04-28 20:14 55.98893 37.88588 38849 ft 476 kts 87°
2026-04-28 20:14 55.99226 38.00393 38850 ft 476 kts 87°
2026-04-28 20:15 55.99546 38.12216 38840 ft 476 kts 87°
2026-04-28 20:15 55.99856 38.24045 38837 ft 476 kts 87°
2026-04-28 20:16 56.00152 38.35807 38830 ft 476 kts 87°
2026-04-28 20:16 56.00432 38.47610 38827 ft 475 kts 88°
2026-04-28 20:17 56.00704 38.59400 38821 ft 474 kts 88°
2026-04-28 20:17 56.00963 38.71129 38812 ft 474 kts 88°
2026-04-28 20:18 56.01213 38.82905 38803 ft 473 kts 88°
2026-04-28 20:18 56.01450 38.94642 38795 ft 472 kts 88°
2026-04-28 20:19 56.01677 39.06385 38788 ft 472 kts 88°
2026-04-28 20:19 56.01892 39.18115 38781 ft 471 kts 88°
2026-04-28 20:20 56.02095 39.29838 38772 ft 471 kts 88°
2026-04-28 20:20 56.02287 39.41474 38769 ft 471 kts 88°
2026-04-28 20:21 56.02469 39.53208 38767 ft 471 kts 89°
2026-04-28 20:21 56.02641 39.64932 38762 ft 472 kts 89°
2026-04-28 20:22 56.03296 39.76592 38758 ft 472 kts 76°
2026-04-28 20:22 56.05427 39.87607 38758 ft 472 kts 64°
2026-04-28 20:23 56.08483 39.98037 38756 ft 472 kts 62°
2026-04-28 20:23 56.11539 40.08480 38758 ft 473 kts 62°
2026-04-28 20:24 56.14583 40.18954 38763 ft 474 kts 62°
2026-04-28 20:24 56.17625 40.29462 38762 ft 475 kts 62°
2026-04-28 20:25 56.20665 40.40007 38761 ft 475 kts 62°
2026-04-28 20:25 56.23648 40.50530 38755 ft 476 kts 66°
2026-04-28 20:26 56.25566 40.61897 38754 ft 476 kts 81°
2026-04-28 20:26 56.25840 40.73749 38751 ft 475 kts 95°
2026-04-28 20:27 56.25332 40.85641 38745 ft 476 kts 95°
2026-04-28 20:27 56.24835 40.97502 38745 ft 476 kts 95°
2026-04-28 20:27 56.24584 41.03427 38530 ft 474 kts 95°
2026-04-28 20:28 56.24331 41.09344 37940 ft 476 kts 95°
2026-04-28 20:28 56.24072 41.15306 37089 ft 480 kts 95°
2026-04-28 20:28 56.23807 41.21330 36152 ft 485 kts 95°
2026-04-28 20:28 56.23536 41.27401 35192 ft 491 kts 95°
2026-04-28 20:29 56.23261 41.33528 34273 ft 491 kts 95°
2026-04-28 20:29 56.22987 41.39555 33300 ft 490 kts 95°
2026-04-28 20:29 56.22709 41.45620 32568 ft 481 kts 95°
2026-04-28 20:29 56.22433 41.51581 31883 ft 478 kts 95°
2026-04-28 20:30 56.22155 41.57520 31145 ft 477 kts 95°
2026-04-28 20:30 56.21875 41.63432 30577 ft 472 kts 95°
2026-04-28 20:30 56.21595 41.69282 30082 ft 466 kts 95°
2026-04-28 20:30 56.21317 41.75046 29474 ft 461 kts 95°
2026-04-28 20:31 56.21039 41.80744 28947 ft 453 kts 95°
2026-04-28 20:31 56.20764 41.86346 28423 ft 446 kts 95°
2026-04-28 20:31 56.20490 41.91862 27885 ft 440 kts 95°
2026-04-28 20:31 56.20218 41.97302 27341 ft 435 kts 95°
2026-04-28 20:32 56.19947 42.02679 26803 ft 430 kts 95°
2026-04-28 20:32 56.19676 42.08004 26267 ft 426 kts 95°
2026-04-28 20:32 56.19409 42.13214 25712 ft 422 kts 95°
2026-04-28 20:32 56.19130 42.18494 24856 ft 427 kts 95°
2026-04-28 20:33 56.18842 42.23826 24265 ft 428 kts 95°
2026-04-28 20:33 56.18555 42.29115 23953 ft 423 kts 96°
2026-04-28 20:33 56.18268 42.34362 23575 ft 423 kts 96°
2026-04-28 20:33 56.17980 42.39615 22973 ft 422 kts 96°
2026-04-28 20:34 56.17691 42.44836 22428 ft 417 kts 96°
2026-04-28 20:34 56.17404 42.49981 21894 ft 411 kts 96°
2026-04-28 20:34 56.17120 42.55048 21362 ft 405 kts 96°
2026-04-28 20:34 56.16841 42.59979 20842 ft 400 kts 96°
2026-04-28 20:35 56.16559 42.64920 20322 ft 396 kts 96°
2026-04-28 20:35 56.16279 42.69802 19801 ft 391 kts 96°
2026-04-28 20:35 56.16000 42.74632 19292 ft 388 kts 96°
2026-04-28 20:35 56.15721 42.79427 18781 ft 385 kts 96°
2026-04-28 20:36 56.15442 42.84182 18268 ft 382 kts 96°
2026-04-28 20:36 56.15164 42.88891 17733 ft 379 kts 96°
2026-04-28 20:36 56.14886 42.93576 17197 ft 375 kts 96°
2026-04-28 20:36 56.14606 42.98258 16374 ft 380 kts 96°
2026-04-28 20:37 56.14320 43.02993 15499 ft 385 kts 96°
2026-04-28 20:37 56.14032 43.07762 14938 ft 381 kts 96°
2026-04-28 20:37 56.13749 43.12407 14649 ft 369 kts 96°
2026-04-28 20:37 56.13472 43.16951 14207 ft 364 kts 96°
2026-04-28 20:38 56.13440 43.21431 13502 ft 366 kts 84°
2026-04-28 20:38 56.13931 43.25909 12799 ft 365 kts 72°
2026-04-28 20:38 56.14747 43.30167 12444 ft 356 kts 70°
2026-04-28 20:38 56.15534 43.34337 12185 ft 353 kts 70°
2026-04-28 20:39 56.16311 43.38512 11898 ft 353 kts 70°
2026-04-28 20:39 56.17084 43.42684 11466 ft 352 kts 71°
2026-04-28 20:39 56.17851 43.46829 11027 ft 347 kts 71°
2026-04-28 20:39 56.18605 43.50911 10600 ft 342 kts 71°
2026-04-28 20:40 56.19348 43.54940 10178 ft 337 kts 71°
2026-04-28 20:40 56.20071 43.58868 10022 ft 324 kts 71°
2026-04-28 20:40 56.20758 43.62604 9849 ft 306 kts 71°
2026-04-28 20:40 56.21414 43.66186 9648 ft 298 kts 71°
2026-04-28 20:41 56.22063 43.69723 9511 ft 299 kts 71°
2026-04-28 20:41 56.22705 43.73234 9273 ft 300 kts 71°
2026-04-28 20:41 56.23355 43.76791 8960 ft 298 kts 71°
2026-04-28 20:41 56.23996 43.80303 8630 ft 293 kts 71°
2026-04-28 20:42 56.24628 43.83777 8141 ft 294 kts 71°
2026-04-28 20:42 56.25269 43.87303 7678 ft 295 kts 71°
2026-04-28 20:42 56.25899 43.90783 7513 ft 292 kts 71°
2026-04-28 20:42 56.26532 43.94281 7297 ft 296 kts 71°
2026-04-28 20:43 56.27161 43.97762 6984 ft 296 kts 71°
2026-04-28 20:43 56.27795 44.01279 6642 ft 293 kts 71°
2026-04-28 20:43 56.28420 44.04754 6309 ft 290 kts 71°
2026-04-28 20:43 56.29347 44.07917 6094 ft 285 kts 45°
2026-04-28 20:44 56.30928 44.09987 5901 ft 280 kts 17°
2026-04-28 20:44 56.32795 44.10534 5613 ft 268 kts 349°
2026-04-28 20:44 56.34526 44.09607 5338 ft 255 kts 330°
2026-04-28 20:44 56.36067 44.08190 5054 ft 249 kts 327°
2026-04-28 20:45 56.37585 44.06750 4776 ft 245 kts 328°
2026-04-28 20:45 56.39111 44.05413 4498 ft 242 kts 330°
2026-04-28 20:45 56.40642 44.04175 4176 ft 240 kts 331°
2026-04-28 20:45 56.42105 44.02827 3853 ft 232 kts 316°
2026-04-28 20:46 56.43074 44.00626 3585 ft 220 kts 290°
2026-04-28 20:46 56.43374 43.97994 3302 ft 213 kts 266°
2026-04-28 20:46 56.43014 43.95428 3049 ft 210 kts 247°
2026-04-28 20:46 56.42404 43.92940 2978 ft 219 kts 248°
2026-04-28 20:47 56.41829 43.90525 3001 ft 200 kts 248°
2026-04-28 20:47 56.41305 43.88313 2989 ft 186 kts 249°
2026-04-28 20:47 56.40667 43.86368 2981 ft 178 kts 230°
2026-04-28 20:47 56.39662 43.85084 2927 ft 175 kts 211°
2026-04-28 20:48 56.38519 43.84360 2704 ft 174 kts 202°
2026-04-28 20:48 56.37412 43.83906 2599 ft 149 kts 200°
2026-04-28 20:48 56.36467 43.83554 2388 ft 131 kts 201°
2026-04-28 20:48 56.35613 43.83229 2077 ft 124 kts 201°
2026-04-28 20:49 56.34782 43.82916 1901 ft 124 kts 200°
2026-04-28 20:49 56.33962 43.82618 1903 ft 114 kts 200°
2026-04-28 20:49 56.33195 43.82332 1905 ft 113 kts 201°
2026-04-28 20:49 56.32425 43.82047 1905 ft 113 kts 201°
2026-04-28 20:50 56.31658 43.81765 1888 ft 113 kts 201°
2026-04-28 20:50 56.30884 43.81481 1736 ft 113 kts 201°
2026-04-28 20:50 56.30109 43.81194 1563 ft 113 kts 201°
2026-04-28 20:50 56.29338 43.80909 1406 ft 114 kts 200°
2026-04-28 20:51 56.28571 43.80624 1232 ft 115 kts 199°
2026-04-28 20:51 56.27780 43.80333 1057 ft 115 kts 197°
2026-04-28 20:51 56.27004 43.80048 885 ft 113 kts 196°
2026-04-28 20:51 56.26489 43.79859 786 ft 115 kts 196°
2026-04-28 20:52 56.25424 43.79511 554 ft 114 kts 194°
2026-04-28 20:52 56.24640 43.79214 410 ft 112 kts 193°
2026-04-28 20:52 56.23853 43.78903 276 ft 116 kts 192°
2026-04-28 20:52 56.23166 43.78648 269 ft 85 kts 191°
2026-04-28 20:53 56.22546 43.78420 265 ft 37 kts 192°
2026-04-28 20:53 56.22301 43.78330 268 ft 36 kts 192°
2026-04-28 20:53 56.22177 43.78284 266 ft 1 kts 192°
2026-04-28 20:54 56.22157 43.78276 267 ft 6 kts 190°
2026-04-28 20:54 56.22097 43.78256 268 ft 12 kts 191°
2026-04-28 20:54 56.21996 43.78228 267 ft 17 kts 178°
2026-04-28 20:54 56.21940 43.78337 267 ft 14 kts 104°
2026-04-28 20:55 56.21927 43.78452 267 ft 0 kts 101°
2026-04-28 20:56 56.21924 43.78476 266 ft 4 kts 102°
2026-04-28 20:56 56.21915 43.78558 266 ft 9 kts 99°
2026-04-28 20:56 56.21949 43.78646 266 ft 11 kts 13°
2026-04-28 20:56 56.22037 43.78677 266 ft 14 kts 14°
2026-04-28 20:57 56.22061 43.78774 266 ft 15 kts 103°
2026-04-28 20:57 56.22059 43.78847 266 ft 5 kts 74°
2026-04-28 20:57 56.22103 43.78897 266 ft 11 kts 11°
2026-04-28 20:57 56.22139 43.78910 266 ft 0 kts 11°
2026-04-28 20:58 56.22139 43.78911 266 ft 1 kts 11°
2026-04-28 20:58 56.22154 43.78917 266 ft 6 kts 13°
2026-04-28 20:58 56.22182 43.78927 266 ft 3 kts 11°
2026-04-28 20:58 56.22226 43.78905 266 ft 11 kts 311°
2026-04-28 20:59 56.22246 43.78798 266 ft 9 kts 306°
2026-04-28 20:59 56.22290 43.78803 266 ft 0 kts 74°
2026-04-28 20:59 56.22291 43.78822 266 ft 3 kts 91°
2026-04-28 21:00 56.22287 43.78871 266 ft 5 kts 101°
2026-04-28 21:00 56.22286 43.78877 266 ft 0 kts 101°